Dewpoint
76 75 76 76 76 76 76 76 76 76 76 76 76 76 76 76 76 76 76 76 76 76 75 75 75 75 75 75 74 74 74 73 73 73 73 73 73 73 73 73 73 73 73 73 72 72 72 71 70 70 71 71 72 72 72 71 71 71 70 70 70 70 70 71 71 71 70 70 71 71 71 71 70 70 70 70 71 71 71 70 70 70 70 70 70 70 69 68 68 67 67 67 67 67 68 68 68 68 68 69 70 71 71
75 75 75 76 76 76 76 75 75 76 76 76 76 76 76 76 76 76 76 76 76 76 75 75 75 75 75 75 74 74 74 73 73 73 73 73 73 73 73 73 73 73 73 73 72 72 71 71 70 70 71 71 71 71 72 71 71 71 70 70 70 70 70 71 71 71 71 71 71 71 71 71 71 70 70 71 71 71 71 70 70 70 70 70 70 70 69 69 68 68 67 67 67 67 68 68 68 68 68 69 69 70 70
74 74 75 75 76 75 75 75 75 76 76 76 76 76 76 76 76 76 76 76 76 76 75 75 75 75 75 75 74 74 74 73 73 73 73 73 73 73 73 73 73 73 73 73 72 72 71 71 70 70 70 70 71 71 72 71 71 71 70 70 70 70 71 71 71 71 71 71 71 71 71 71 71 71 70 71 71 71 71 70 70 70 70 70 70 70 70 69 69 68 68 67 67 67 67 68 68 68 68 69 69 69 69
74 74 75 75 75 75 75 75 75 76 76 76 76 76 76 76 76 76 76 76 76 76 75 75 75 75 75 75 74 74 74 73 73 73 73 73 73 73 73 73 73 73 73 72 72 71 70 69 69 69 69 69 68 69 72 71 71 70 70 70 70 70 71 72 71 71 71 71 71 71 71 71 71 71 71 71 72 72 71 70 70 70 70 70 70 70 70 70 69 69 68 67 67 67 67 68 68 68 68 68 69 69 69
74 74 74 75 75 75 75 75 75 75 76 76 76 76 76 76 76 76 76 76 76 75 75 75 75 75 75 74 74 74 74 74 73 73 73 73 73 73 73 73 73 73 73 72 71 71 70 69 69 69 69 67 67 68 71 71 71 71 70 70 70 71 72 72 72 71 71 71 71 71 71 71 71 71 72 72 72 72 71 71 70 70 70 70 70 70 69 69 69 68 68 67 67 67 67 67 68 68 68 68 68 68 68
74 74 74 75 75 75 75 75 75 75 76 76 76 76 76 76 76 76 76 76 76 75 75 75 75 75 75 74 74 74 74 74 74 74 74 73 73 73 73 73 73 73 72 72 71 71 70 69 68 68 68 67 67 68 71 71 71 71 70 70 70 71 72 72 72 72 71 71 71 71 71 71 71 72 72 73 73 72 71 71 71 70 70 70 70 69 69 69 68 68 68 67 67 67 67 67 67 67 68 68 68 68 68
74 74 74 74 75 75 75 75 75 75 76 76 76 76 76 76 76 76 76 76 75 75 75 75 75 75 74 74 74 74 74 74 74 74 74 74 73 73 73 73 73 72 72 71 71 70 69 68 67 67 65 66 67 69 71 71 71 71 70 70 71 72 72 72 72 72 71 71 71 71 71 71 71 71 72 72 72 72 71 71 71 70 70 70 69 69 69 68 68 68 67 67 67 67 67 67 67 67 67 68 68 68 68
74 74 74 74 74 75 75 75 75 75 76 76 76 76 76 76 76 76 76 75 75 75 75 75 75 74 74 74 74 74 74 74 74 74 73 73 73 73 73 73 72 72 71 71 70 69 69 67 66 64 63 66 68 70 71 71 71 70 70 70 71 72 73 72 72 72 71 71 71 71 71 71 71 71 71 71 71 71 71 71 71 70 70 70 69 69 69 68 68 68 67 67 67 67 67 67 67 67 67 67 67 67 67
74 74 74 74 74 74 75 75 75 75 75 75 75 75 75 76 76 76 76 75 75 75 75 75 74 74 74 74 74 74 74 74 74 73 73 73 73 73 73 72 72 71 71 71 70 69 68 67 65 63 63 67 69 71 71 71 70 70 70 70 71 72 73 73 72 72 72 71 71 71 71 71 71 71 71 71 71 71 71 70 70 70 70 69 69 69 69 69 68 68 68 67 67 67 66 66 67 67 67 67 67 67 67
74 74 74 74 74 74 75 75 75 75 75 75 75 75 75 75 75 75 75 75 75 75 75 75 75 74 74 74 74 74 74 74 73 73 73 73 73 72 72 72 71 71 71 70 70 69 67 66 64 63 63 67 70 71 71 70 70 70 70 70 71 72 73 73 73 72 72 71 71 71 71 71 71 70 70 70 70 70 70 70 70 70 69 69 69 69 69 69 69 68 68 68 67 67 66 67 67 67 67 66 66 66 66
74 74 74 74 74 74 74 75 75 75 75 75 75 75 75 75 75 75 75 75 75 75 75 75 75 74 74 74 74 74 74 73 73 73 72 72 72 72 72 71 71 71 71 70 69 68 67 65 64 63 64 68 71 71 71 71 70 70 70 71 72 73 73 73 73 73 72 72 72 71 71 71 71 70 70 70 70 70 70 70 70 70 69 69 69 69 69 69 69 69 68 68 67 67 67 67 67 67 67 67 66 66 65
73 73 74 73 73 73 74 74 75 75 75 75 75 75 75 75 75 75 74 74 74 75 75 75 75 74 74 74 74 73 73 73 73 73 72 72 72 72 71 71 71 71 70 70 69 67 66 64 63 62 64 68 71 71 71 71 71 70 70 71 72 73 73 73 73 73 73 73 72 72 72 72 71 70 70 70 70 69 69 69 69 69 69 69 69 69 69 68 68 69 69 68 68 67 67 67 67 67 67 67 66 66 65
72 73 73 73 73 73 73 74 74 75 74 74 74 74 75 75 75 75 74 74 74 74 74 74 74 74 74 74 74 73 73 73 72 72 72 72 72 71 71 71 70 70 70 69 68 66 64 63 62 62 64 68 70 71 71 71 71 71 71 72 73 73 73 73 73 73 73 73 73 72 72 72 71 71 70 70 69 69 69 69 69 69 69 69 69 68 68 68 68 68 68 68 67 67 67 67 67 67 67 67 67 66 66
71 71 72 72 73 73 73 74 74 74 74 74 74 74 74 74 75 74 74 74 74 74 74 74 74 74 74 74 73 73 73 72 72 72 72 72 71 71 71 70 70 70 69 68 67 65 64 62 61 61 65 68 70 70 70 71 71 71 71 72 73 73 73 73 73 73 73 73 73 72 72 72 71 70 70 69 69 69 68 68 68 68 68 68 68 68 68 67 67 67 68 68 67 67 67 66 67 67 67 67 67 67 66
68 69 70 71 72 73 73 74 74 74 74 74 74 74 74 74 74 74 74 74 74 74 74 74 74 74 74 73 73 73 72 72 72 72 71 71 71 71 71 70 70 69 69 67 65 64 62 61 60 62 65 68 70 70 70 70 71 71 72 72 73 73 72 72 72 72 72 72 72 72 72 71 71 70 70 69 69 68 68 68 68 68 68 68 67 67 67 67 67 67 67 67 67 67 66 66 67 67 67 68 67 67 67
67 67 67 70 72 73 73 73 73 74 74 73 74 74 73 74 74 74 74 74 74 74 74 74 74 73 73 73 73 72 71 71 71 71 71 71 71 71 70 70 69 68 67 66 64 63 62 60 61 62 66 68 69 69 70 70 71 71 72 72 72 72 72 72 72 72 72 72 72 72 72 71 71 70 70 69 68 68 68 68 68 68 67 67 67 67 67 67 67 67 67 67 67 67 66 66 66 67 67 68 68 67 67
65 66 67 69 71 72 73 73 73 73 73 73 73 73 73 73 73 73 73 74 74 74 74 74 73 73 72 72 72 71 71 71 71 71 71 71 71 70 70 69 68 67 65 65 63 62 60 60 61 64 66 67 67 68 69 70 70 71 72 72 72 72 72 72 72 72 72 72 72 72 72 72 71 71 70 69 69 68 68 68 68 68 68 67 67 67 67 67 67 67 67 67 67 66 66 66 66 67 67 68 68 68 67
66 67 68 69 70 71 72 72 72 73 73 73 73 73 73 72 72 73 73 73 73 73 73 73 73 72 72 71 71 71 71 71 71 71 70 70 70 69 69 68 67 66 64 64 63 61 60 61 62 64 66 67 67 67 68 69 71 71 72 72 72 72 72 72 72 72 72 72 72 72 71 71 71 71 71 70 69 69 68 68 67 68 68 68 68 68 67 67 67 67 67 67 66 66 66 66 66 67 67 69 69 68 67
67 67 68 68 69 70 71 72 72 72 72 73 72 72 72 72 72 72 72 72 73 73 73 72 72 72 71 71 71 71 71 71 71 71 70 70 68 67 67 67 67 65 64 64 62 60 60 61 63 65 66 66 67 67 67 69 71 72 72 72 72 72 72 72 71 71 71 71 71 71 71 71 71 71 71 71 70 69 68 68 67 67 67 68 68 68 68 68 68 68 67 67 66 66 66 66 66 67 67 68 68 68 67
67 67 68 68 68 69 70 71 71 72 72 72 72 72 72 72 72 72 72 72 72 72 72 72 71 71 71 71 71 71 71 71 71 70 70 69 68 67 67 67 66 65 64 63 61 60 59 61 62 64 65 66 66 67 67 69 71 71 72 72 72 71 71 71 71 71 71 71 71 71 71 71 71 71 71 70 70 70 69 68 67 67 67 67 67 67 67 68 68 68 68 67 66 66 66 66 66 67 67 67 67 67 67
67 67 67 68 68 68 69 70 71 71 71 71 71 71 71 71 71 71 71 71 71 71 72 71 71 71 71 71 71 71 71 71 70 70 69 69 68 67 67 67 66 65 64 62 61 60 59 61 62 64 65 65 66 67 67 68 70 71 71 71 71 71 71 71 71 71 71 70 70 70 71 71 71 71 70 70 70 70 69 68 67 67 67 67 67 67 67 67 68 68 68 67 67 66 66 66 66 66 67 67 67 66 66
67 67 67 67 67 67 68 69 70 70 71 71 71 70 70 70 70 70 70 70 70 71 71 71 70 70 71 71 71 71 71 71 70 69 69 68 67 67 67 66 66 65 64 62 61 59 59 60 62 63 64 65 65 66 67 69 70 71 71 71 71 71 70 70 70 70 70 70 70 70 70 70 70 70 70 69 69 69 69 68 67 67 67 67 67 67 67 67 67 68 68 67 67 66 66 66 66 66 66 66 66 66 66
67 67 67 67 67 67 68 69 69 70 70 70 69 69 69 69 69 69 69 69 69 69 70 70 70 70 71 71 70 70 70 70 69 69 68 68 67 67 66 66 65 65 64 62 60 59 58 60 61 62 63 64 65 66 67 69 70 70 71 71 70 70 70 70 69 69 69 69 69 69 69 69 69 69 69 68 68 68 68 68 67 67 67 67 67 67 67 67 67 67 67 67 67 67 66 66 66 66 66 66 66 66 66
67 67 67 67 67 67 68 68 69 69 69 69 69 69 69 69 69 69 69 69 69 69 69 69 70 70 71 70 70 70 70 69 69 68 68 67 67 67 66 65 64 64 63 62 60 59 58 59 61 62 63 63 64 65 66 68 69 70 70 70 70 70 69 69 69 69 69 68 68 68 68 68 68 68 68 67 67 67 67 67 67 67 67 67 67 67 67 67 67 67 67 67 67 66 66 66 66 66 66 66 66 66 66
67 67 67 67 67 67 68 68 68 68 69 69 69 68 69 69 69 69 69 69 69 69 69 69 70 70 70 70 69 69 69 69 68 68 67 67 67 66 66 65 64 63 63 62 60 58 58 59 61 62 62 63 64 65 66 67 68 69 70 70 70 70 69 69 69 69 69 68 68 68 67 67 67 67 67 67 67 67 67 67 67 67 66 66 67 67 67 67 67 66 66 66 66 66 66 66 66 66 66 66 66 66 66
67 67 67 67 67 67 67 68 68 68 68 68 68 68 68 69 69 69 69 69 70 70 69 70 70 70 69 69 69 69 69 68 68 67 67 67 66 66 66 65 64 63 62 61 59 58 58 59 60 61 62 62 63 64 65 66 67 69 69 69 70 70 70 69 69 69 69 68 68 68 67 67 67 67 67 67 67 67 67 67 67 67 66 66 67 67 67 67 67 66 66 66 66 66 66 65 65 65 65 65 65 65 65
67 67 66 67 67 67 67 67 68 68 68 68 68 68 68 69 69 69 69 69 70 70 69 70 69 69 69 69 68 68 68 68 67 67 67 67 66 66 65 64 64 63 62 61 59 58 58 58 60 61 62 62 62 63 65 67 67 68 68 69 70 70 70 69 69 69 68 68 68 68 67 67 67 67 67 67 67 67 67 67 67 67 66 67 67 67 67 67 67 66 66 66 66 65 65 65 65 65 65 65 65 65 65
66 66 66 66 66 67 67 67 67 68 68 68 68 68 68 69 69 69 69 70 70 70 70 69 69 69 68 68 68 68 68 67 67 67 67 66 66 66 65 64 63 62 61 60 59 58 57 58 59 61 61 62 62 63 65 66 67 67 68 68 69 70 70 69 69 69 68 68 68 68 68 67 67 66 66 66 67 67 67 67 67 67 67 67 67 67 67 67 67 67 66 66 65 65 65 65 64 64 65 65 65 65 65
66 66 66 66 66 66 66 67 67 67 69 68 68 67 68 69 69 69 69 70 70 69 69 69 68 68 67 67 67 67 67 67 67 67 66 66 66 65 65 64 63 62 61 60 58 57 57 58 59 60 61 62 62 63 64 65 66 67 67 68 68 69 69 69 69 69 68 68 68 68 68 67 67 67 66 66 67 67 68 67 67 67 67 67 67 67 67 67 67 67 66 66 66 65 65 65 65 65 65 65 66 66 66
65 66 66 66 66 66 66 66 67 67 68 68 67 67 67 68 69 69 69 69 69 69 68 68 68 67 67 67 67 67 67 67 66 66 66 66 65 65 64 64 63 62 61 59 58 57 57 57 58 60 62 62 62 63 63 65 65 66 67 67 67 68 69 69 69 68 68 67 67 67 67 67 67 67 66 66 66 67 68 68 67 67 67 67 67 67 67 67 67 67 67 66 66 66 66 66 66 66 66 66 66 66 66
65 66 66 66 66 66 67 67 67 67 67 68 67 67 67 68 69 69 69 69 69 68 68 67 67 67 66 66 66 66 66 66 66 66 65 65 65 64 64 63 62 62 61 59 58 57 57 58 59 60 62 62 62 63 63 64 65 66 67 67 67 67 68 68 68 68 68 67 67 67 67 67 67 67 67 66 66 67 68 68 68 67 67 67 67 67 67 68 68 67 67 67 66 66 67 67 67 67 67 67 67 67 67
66 66 66 66 66 66 67 67 67 67 67 67 67 67 67 67 68 68 68 69 68 67 67 67 66 66 66 65 65 65 65 65 65 65 65 64 64 63 63 62 62 61 60 58 57 57 57 58 59 61 62 62 62 63 63 64 65 66 66 66 66 67 67 67 68 68 68 68 67 67 67 67 67 67 67 67 67 67 67 68 68 67 67 67 67 67 67 68 68 68 67 67 67 67 67 67 67 67 67 67 67 67 67
66 66 66 66 66 66 66 67 66 66 67 67 67 67 67 67 67 68 68 68 68 67 67 66 66 65 65 65 64 64 64 64 64 64 64 64 63 63 62 62 61 61 60 58 57 56 57 58 60 61 62 62 62 63 63 64 65 66 65 65 65 66 67 67 67 67 68 68 68 67 67 66 66 66 67 67 67 67 67 68 68 68 67 67 67 67 67 67 68 68 68 67 67 67 67 67 67 67 67 67 67 67 67
66 66 66 66 65 66 66 66 66 66 67 67 67 67 67 67 67 67 68 68 67 67 67 66 65 65 64 64 63 63 63 62 62 62 63 63 62 62 62 61 60 60 59 57 56 56 57 58 60 61 62 62 62 63 63 64 65 66 66 65 64 65 66 66 67 67 68 68 68 68 67 67 66 66 66 66 67 67 67 68 68 68 68 67 67 67 67 67 67 67 68 67 67 67 67 67 67 68 68 68 68 67 67
65 65 66 65 65 65 65 66 66 67 67 67 67 67 67 67 67 67 67 67 67 67 66 66 64 64 63 63 63 62 62 62 61 61 62 62 62 61 61 60 59 59 58 57 56 56 57 58 60 61 62 62 62 63 63 64 65 65 66 65 64 64 65 65 66 66 67 67 68 68 68 67 67 66 66 66 66 66 67 67 68 68 68 68 68 67 67 67 67 67 67 67 67 67 67 67 67 68 68 68 68 68 67
65 65 65 65 65 65 65 65 66 66 67 67 67 67 68 67 67 67 67 67 67 66 65 64 63 63 62 62 62 62 62 61 61 60 60 60 60 60 59 59 59 58 58 56 56 56 57 58 60 61 62 62 62 63 63 64 64 64 65 65 64 64 64 65 66 66 66 67 67 68 69 68 67 67 66 66 65 66 66 67 67 68 68 68 68 68 67 67 67 67 67 67 67 67 67 67 67 67 68 68 68 68 67
65 64 64 65 65 65 65 65 66 66 66 66 66 67 67 68 68 68 67 67 66 65 64 63 63 62 62 62 62 62 62 61 60 59 59 59 59 58 58 58 58 57 56 56 56 56 56 58 59 61 61 62 62 62 63 63 64 64 64 65 65 65 64 65 65 65 65 66 67 67 68 69 68 68 67 66 66 65 65 66 66 67 67 68 69 69 68 68 67 67 67 67 67 67 67 67 67 67 68 68 68 68 67
65 65 64 64 64 64 64 65 65 66 66 66 66 66 66 67 68 68 67 67 66 65 64 63 63 62 62 61 61 61 62 61 60 59 59 58 58 58 57 57 57 56 55 55 56 56 56 58 59 60 61 61 62 62 63 63 64 64 64 65 65 65 65 64 64 64 64 64 65 67 67 68 68 68 68 67 67 66 65 65 65 66 67 68 68 69 70 70 69 68 68 67 67 67 67 67 67 67 68 68 68 68 67
66 65 65 65 65 64 64 64 65 65 66 66 66 66 66 66 67 67 67 67 66 65 64 63 62 62 62 61 61 61 62 61 60 59 58 58 57 57 56 56 56 55 55 55 56 56 56 57 58 60 60 61 61 62 62 63 63 64 64 64 64 64 64 64 63 63 63 63 63 65 67 67 68 68 69 68 68 67 66 65 65 66 67 67 68 68 69 70 70 70 70 69 68 68 67 67 67 67 68 68 68 68 67
66 66 65 66 66 65 65 65 65 65 65 66 66 67 66 66 66 67 67 67 66 65 64 63 62 62 61 61 60 61 61 61 60 59 58 57 57 56 55 55 55 55 54 55 56 56 55 56 58 59 60 60 61 62 62 62 63 63 63 64 64 64 64 63 63 63 63 63 63 64 66 67 67 68 68 69 69 68 67 67 66 66 67 67 68 68 68 69 69 70 70 70 69 68 68 67 67 67 68 68 69 68 67
66 66 65 66 66 67 67 66 66 65 65 66 67 67 67 67 67 67 67 67 67 66 64 63 62 62 61 61 60 60 61 61 59 58 58 57 56 55 54 54 54 54 54 56 56 56 55 56 57 58 59 59 60 61 61 62 62 63 63 63 63 63 63 63 63 63 63 63 63 63 64 66 67 67 68 68 69 69 68 67 67 67 68 68 68 68 68 68 68 68 69 70 69 69 68 68 67 67 68 69 69 69 67
66 66 66 65 66 66 67 67 67 67 66 66 67 67 68 67 67 67 67 67 67 66 66 64 63 62 62 61 60 60 61 60 59 58 58 57 56 55 54 53 53 53 54 56 56 56 55 55 57 58 58 59 59 60 61 62 62 62 63 63 63 63 62 62 63 63 63 63 62 63 63 65 66 67 67 67 68 68 68 67 67 68 68 69 68 68 68 67 67 67 67 68 69 69 69 68 68 68 68 69 69 68 67
66 66 66 65 65 66 66 67 67 67 67 67 67 68 68 68 68 68 67 67 67 66 66 66 64 63 62 62 61 60 60 60 58 58 58 57 56 55 54 53 53 53 54 56 56 56 55 55 56 57 58 58 58 59 60 61 62 62 62 62 62 62 62 62 63 63 63 62 62 63 63 64 65 65 66 67 67 67 67 67 67 67 68 69 68 68 67 67 67 67 67 67 68 69 70 69 69 68 68 69 69 68 67
66 66 66 66 66 66 66 66 66 67 67 67 68 68 68 68 68 68 68 67 67 66 66 66 66 65 64 63 61 60 59 59 58 58 57 57 56 56 54 53 53 53 54 55 56 56 55 55 56 57 58 58 58 58 59 60 61 62 62 62 62 62 62 62 63 63 62 62 62 62 63 63 64 65 65 65 65 66 66 66 66 67 67 68 68 68 67 66 66 66 66 67 67 68 70 70 69 69 69 69 68 68 67
65 66 66 66 66 66 66 66 66 66 66 67 67 67 68 68 68 68 68 67 67 66 66 66 66 65 65 64 62 60 59 58 58 57 57 57 56 56 55 54 53 53 54 55 56 56 55 55 56 56 57 57 58 58 58 60 60 61 61 61 61 62 62 62 62 62 62 62 62 62 62 63 63 64 64 64 64 64 65 65 65 66 67 68 68 68 67 66 66 66 67 67 67 67 69 70 70 69 69 68 68 67 67
65 65 65 65 66 66 66 66 66 65 65 66 66 67 67 67 67 67 67 67 67 66 66 66 66 65 65 64 62 60 59 58 58 57 57 56 56 56 55 54 54 54 54 55 55 55 55 55 55 56 56 57 57 58 58 59 60 60 60 60 60 61 61 62 62 62 62 62 62 62 62 63 63 64 64 64 64 64 64 64 64 65 66 67 68 68 67 67 67 67 67 67 67 67 69 70 70 70 69 68 67 67 66
65 65 65 65 65 66 66 66 66 65 65 65 65 66 67 67 67 67 67 67 67 66 66 65 65 65 65 64 63 61 59 58 57 57 56 56 56 56 56 55 55 54 55 55 55 55 55 55 55 55 56 57 57 57 58 58 59 59 59 59 60 60 61 62 62 62 62 62 62 62 62 62 63 63 64 64 64 64 64 63 64 64 65 67 67 68 68 68 68 68 69 68 68 68 69 70 70 70 69 68 67 67 66
65 65 65 65 65 65 66 66 66 66 65 65 65 65 65 66 66 67 66 66 66 66 66 65 65 65 65 64 63 62 61 59 58 57 56 56 56 56 56 55 55 55 55 55 55 55 55 54 54 55 55 56 56 57 58 58 58 58 58 58 59 59 60 61 62 62 62 62 62 61 61 62 62 63 63 63 64 64 64 64 64 64 64 65 67 67 68 67 67 68 69 69 69 69 70 70 70 70 69 68 67 66 66
65 65 65 65 65 65 65 66 66 66 66 65 65 64 65 65 66 66 66 66 66 66 66 65 65 64 64 64 63 62 61 60 59 58 57 56 56 56 56 56 55 55 55 55 54 55 55 54 54 54 54 55 56 56 57 58 58 58 58 58 58 58 59 60 61 62 62 61 61 61 61 61 62 62 62 63 63 64 64 64 63 63 63 64 65 66 67 67 67 67 68 69 69 70 70 70 70 69 68 67 67 66 66
64 64 64 65 65 65 65 65 65 66 66 65 65 65 65 65 65 65 65 66 66 66 65 65 65 64 64 64 63 62 62 61 60 59 58 57 56 55 55 55 55 55 55 54 54 54 54 53 53 53 53 54 55 56 56 57 57 57 57 57 57 58 58 59 60 61 61 61 61 61 60 60 61 61 62 62 63 64 64 64 63 63 63 63 64 65 66 66 66 67 67 68 69 69 69 69 69 68 68 67 66 66 66
63 63 64 64 64 64 65 65 65 65 65 65 65 65 65 65 65 65 65 65 65 65 65 64 64 64 64 64 63 63 62 61 60 59 57 56 55 55 55 55 55 54 54 55 55 55 54 53 53 53 53 53 54 54 55 56 57 57 57 57 57 57 58 59 60 60 60 60 60 60 60 60 60 60 61 62 62 63 64 64 63 63 62 62 63 64 65 65 66 66 67 67 68 68 68 68 68 67 67 67 66 66 66
63 63 63 63 64 64 65 65 65 65 65 65 65 65 65 65 64 64 65 65 65 64 64 64 63 63 64 64 63 63 62 62 60 59 57 56 56 56 56 55 54 54 54 54 54 54 55 54 53 53 52 52 53 53 54 55 56 56 57 57 57 57 58 58 59 60 60 60 60 60 60 60 60 60 61 61 62 63 64 64 64 63 62 62 62 62 63 63 63 64 65 67 67 67 67 67 67 67 67 67 66 66 66
63 63 63 63 64 64 65 65 65 65 65 65 64 64 64 64 64 65 65 64 64 64 64 63 63 63 63 63 63 62 62 62 61 59 58 57 56 56 56 55 54 54 54 53 53 53 53 53 53 53 53 53 52 53 53 53 54 55 56 57 57 57 58 58 58 59 59 59 60 60 60 60 60 60 60 61 62 63 64 64 64 63 63 62 62 62 63 62 60 60 62 64 66 67 66 66 66 66 66 67 67 67 67
63 63 63 63 63 64 64 64 64 65 65 65 64 64 64 64 64 64 64 64 64 64 64 63 63 62 62 62 62 62 62 62 61 60 59 58 57 56 56 55 54 54 54 53 53 52 52 53 53 53 53 53 52 52 52 53 53 54 55 56 57 57 58 58 58 58 58 59 59 59 60 60 60 60 60 61 62 62 63 64 64 64 63 62 62 62 63 62 59 58 59 60 62 63 65 66 66 67 67 67 67 67 67
62 62 63 64 63 63 64 64 64 64 65 65 64 64 64 64 64 64 64 64 64 64 63 63 63 62 61 61 61 61 61 62 62 61 60 59 58 57 55 55 55 54 54 54 53 52 51 52 53 53 53 53 52 52 52 52 52 53 53 55 56 56 57 58 58 58 58 58 59 59 59 60 60 60 61 61 62 62 63 64 64 64 64 63 62 62 62 61 59 59 60 60 59 60 61 65 67 67 67 67 67 67 67
60 61 62 63 63 63 63 64 64 64 64 64 64 64 64 63 63 64 64 64 64 64 64 63 62 62 62 61 61 61 61 61 61 61 61 60 59 58 57 56 55 54 53 53 52 52 52 52 52 53 53 53 53 52 52 52 52 52 53 53 54 55 56 57 58 58 58 58 58 59 59 59 60 60 61 61 62 62 63 63 64 64 64 63 63 62 62 62 62 62 62 62 60 59 59 63 66 67 67 67 67 67 67
59 60 60 62 62 63 63 63 63 64 64 64 64 64 64 64 64 64 64 64 64 64 64 63 62 62 62 61 61 60 60 60 61 61 62 61 60 60 59 57 56 54 53 53 52 52 52 53 52 52 53 53 53 53 52 52 52 52 52 52 53 54 55 56 57 58 57 58 58 58 59 59 60 60 60 61 62 62 63 63 64 64 64 64 63 63 62 62 62 62 62 62 62 61 59 62 65 67 68 68 68 67 67
58 58 59 60 61 62 63 63 63 63 64 64 64 64 64 63 63 63 63 63 64 64 64 64 63 62 61 61 61 60 60 59 60 60 61 61 61 61 60 58 57 56 55 54 53 53 53 53 52 52 52 52 53 53 53 53 52 52 52 52 53 53 54 55 56 57 57 57 57 58 58 59 59 60 60 61 61 62 62 63 63 63 64 64 63 63 62 62 62 62 62 62 62 61 59 62 64 66 68 68 68 68 68
58 58 58 59 60 61 63 63 63 63 63 63 63 63 63 62 62 61 62 62 63 64 64 64 63 62 62 61 61 60 59 59 59 59 60 61 61 61 60 59 58 58 58 56 55 54 53 52 52 52 51 51 51 52 53 53 53 53 53 53 53 53 53 53 54 55 57 57 57 57 57 58 59 60 60 61 61 62 62 62 63 63 63 64 64 63 62 61 61 61 61 60 60 60 59 61 62 65 67 68 68 68 69
58 58 58 59 59 60 61 62 63 63 63 63 63 63 62 61 61 61 61 61 62 62 63 64 63 63 62 62 61 60 59 59 59 59 59 59 60 60 61 59 58 57 58 58 56 55 54 53 52 51 51 50 49 50 51 52 53 53 53 53 53 53 53 53 53 54 55 56 57 57 57 57 58 59 60 60 61 61 62 62 62 62 63 63 63 63 62 62 62 61 61 60 60 60 59 60 62 64 67 68 68 68 69
58 58 58 58 58 59 59 60 61 62 62 62 63 63 62 61 61 61 61 61 61 62 63 63 63 63 63 62 61 61 60 59 59 59 59 59 59 59 60 59 57 57 58 58 57 55 54 53 53 52 51 50 49 49 49 50 52 52 53 53 53 53 53 53 54 54 55 56 57 57 56 57 57 58 59 60 60 61 61 61 62 62 62 62 63 63 63 62 62 62 62 61 60 60 60 60 62 64 66 67 68 68 69